Omaha, NE

5:05 AM CST on February 21, 2017 (GMT -0600)
Millard Municipal

Weather History for KMLE - October, 2013

Change the Weather History Date:

Tuesday, October 8, 2013

  Actual Average (KOFF) Record (KOFF)
Temperature  
Mean Temperature 62 °F -  
Max Temperature 77 °F 67 °F 90 °F (2010)
Min Temperature 47 °F 45 °F 23 °F (2000)
Degree Days  
Heating Degree Days 3    
Growing Degree Days 12 (Base 50)    
Moisture  
Dew Point 43 °F    
Average Humidity 53    
Maximum Humidity 79    
Minimum Humidity 30    
Precipitation  
Precipitation 0.00 in - - ()
Sea Level Pressure  
Sea Level Pressure 29.96 in    
Wind  
Wind Speed 7 mph (SSE)    
Max Wind Speed 20 mph    
Max Gust Speed 29 mph    
Visibility 10 miles    
Events      
Averages and records for this station are not official NWS values.
T = Trace of Precipitation, MM = Missing Value Source: NWS Daily Summary

Daily Weather History Graph

Daily Weather History Graph

Search for Another Location

Airport or City:

Trip Planner

Search our weather history database for the weather conditions in past years. The results will help you decide how hot, cold, wet, or windy it might be!

Date:

Astronomy

Oct. 08, 2013 Rise Set
Actual Time 7:28 AM CDT 6:54 PM CDT
Civil Twilight 7:01 AM CDT 7:21 PM CDT
Nautical Twilight 6:29 AM CDT 7:53 PM CDT
Astronomical Twilight 5:57 AM CDT 8:25 PM CDT
Moon 11:26 AM CDT (10/8) 9:29 PM CDT (10/8)
Length of Visible Light 12h 20m
Length of Day
11h 25m
Waxing Crescent, 16% of the Moon is Illuminated
Oct 8
Waxing Crescent
Oct 11
First Quarter
Oct 18
Full
Oct 26
Last Quarter
Nov 3
New

Hourly Weather History & Observations

Time (CDT) Temp. Dew Point Humidity Pressure Visibility Wind Dir Wind Speed Gust Speed Precip Events Conditions
12:15 AM 56.3 °F 41.0 °F 57% 30.00 in 10.0 mi SE 3.5 mph - N/A   Clear
12:35 AM 56.3 °F 41.0 °F 57% 29.99 in 10.0 mi Calm Calm - N/A   Clear
12:55 AM 55.4 °F 41.0 °F 58% 29.99 in 10.0 mi Calm Calm - N/A   Clear
1:15 AM 55.0 °F 41.2 °F 60% 29.99 in 10.0 mi ESE 3.5 mph - N/A   Clear
1:35 AM 54.1 °F 41.5 °F 62% 30.00 in 10.0 mi Calm Calm - N/A   Clear
1:55 AM 51.8 °F 42.4 °F 70% 29.99 in 10.0 mi Calm Calm - N/A   Clear
2:15 AM 50.2 °F 42.8 °F 76% 30.00 in 10.0 mi Calm Calm - N/A   Clear
2:35 AM 49.3 °F 41.9 °F 76% 30.00 in 10.0 mi Calm Calm - N/A   Clear
2:55 AM 49.3 °F 42.1 °F 76% 29.99 in 10.0 mi Calm Calm - N/A   Clear
3:15 AM 48.7 °F 42.1 °F 78% 29.99 in 10.0 mi Calm Calm - N/A   Clear
3:35 AM 48.2 °F 41.9 °F 79% 29.99 in 10.0 mi Calm Calm - N/A   Clear
3:55 AM 48.6 °F 41.5 °F 77% 29.99 in 10.0 mi Calm Calm - N/A   Clear
4:15 AM 48.4 °F 41.9 °F 78% 29.99 in 10.0 mi SE 3.5 mph - N/A   Clear
4:35 AM 48.6 °F 41.2 °F 76% 29.99 in 10.0 mi Calm Calm - N/A   Clear
4:55 AM 48.2 °F 41.9 °F 79% 29.99 in 10.0 mi SE 3.5 mph - N/A   Clear
5:15 AM 47.7 °F 41.0 °F 78% 29.99 in 10.0 mi SE 4.6 mph - N/A   Clear
5:35 AM 48.4 °F 41.0 °F 76% 29.99 in 10.0 mi SE 3.5 mph - N/A   Clear
5:55 AM 48.2 °F 41.2 °F 77% 29.99 in 10.0 mi SE 5.8 mph - N/A   Clear
6:15 AM 48.2 °F 41.2 °F 77% 29.99 in 10.0 mi SE 4.6 mph - N/A   Clear
6:35 AM 48.2 °F 41.4 °F 77% 30.00 in 10.0 mi SE 4.6 mph - N/A   Clear
6:55 AM 47.7 °F 41.2 °F 78% 30.00 in 10.0 mi SE 4.6 mph - N/A   Clear
7:15 AM 47.3 °F 40.8 °F 78% 29.99 in 10.0 mi ESE 5.8 mph - N/A   Clear
7:35 AM 47.7 °F 41.2 °F 78% 29.99 in 10.0 mi ESE 5.8 mph - N/A   Clear
7:55 AM 47.5 °F 41.0 °F 78% 29.99 in 10.0 mi SE 6.9 mph - N/A   Clear
8:15 AM 49.1 °F 41.9 °F 76% 30.00 in 10.0 mi SE 5.8 mph - N/A   Clear
8:35 AM 50.5 °F 42.4 °F 74% 30.00 in 10.0 mi ESE 6.9 mph - N/A   Clear
8:55 AM 53.1 °F 43.5 °F 70% 30.00 in 10.0 mi SSE 6.9 mph - N/A   Clear
9:15 AM 56.1 °F 43.5 °F 63% 30.00 in 10.0 mi SSE 6.9 mph - N/A   Clear
9:35 AM 58.1 °F 42.3 °F 56% 30.00 in 10.0 mi SSE 10.4 mph 16.1 mph N/A   Clear
9:55 AM 59.9 °F 42.8 °F 53% 29.99 in 10.0 mi SSE 8.1 mph - N/A   Clear
10:15 AM 61.7 °F 42.1 °F 49% 29.99 in 10.0 mi South 11.5 mph 17.3 mph N/A   Clear
10:35 AM 63.7 °F 41.4 °F 44% 29.98 in 10.0 mi South 13.8 mph 20.7 mph N/A   Clear
10:55 AM 64.8 °F 41.5 °F 43% 29.98 in 10.0 mi South 15.0 mph 19.6 mph N/A   Clear
11:15 AM 66.2 °F 42.3 °F 42% 29.98 in 10.0 mi South 15.0 mph 18.4 mph N/A   Clear
11:35 AM 67.8 °F 43.2 °F 41% 29.97 in 10.0 mi South 12.7 mph 18.4 mph N/A   Clear
11:55 AM 69.1 °F 43.3 °F 39% 29.96 in 10.0 mi SSE 15.0 mph 20.7 mph N/A   Clear
12:15 PM 70.7 °F 43.5 °F 37% 29.96 in 10.0 mi South 15.0 mph 18.4 mph N/A   Clear
12:35 PM 72.1 °F 43.2 °F 35% 29.95 in 10.0 mi South 13.8 mph 20.7 mph N/A   Clear
12:55 PM 73.0 °F 43.2 °F 34% 29.95 in 10.0 mi SSE 15.0 mph 20.7 mph N/A   Clear
1:15 PM 74.1 °F 43.3 °F 33% 29.94 in 10.0 mi SSE 16.1 mph 21.9 mph N/A   Clear
1:35 PM 75.0 °F 42.8 °F 32% 29.93 in 10.0 mi South 16.1 mph 24.2 mph N/A   Clear
1:55 PM 75.4 °F 42.8 °F 31% 29.93 in 10.0 mi South 17.3 mph 24.2 mph N/A   Clear
2:15 PM 75.9 °F 43.5 °F 31% 29.92 in 10.0 mi South 17.3 mph 26.5 mph N/A   Clear
2:35 PM 76.5 °F 43.9 °F 31% 29.91 in 10.0 mi South 18.4 mph 24.2 mph N/A   Clear
2:55 PM 77.2 °F 45.0 °F 32% 29.91 in 10.0 mi South 17.3 mph 25.3 mph N/A   Clear
3:15 PM 76.8 °F 44.1 °F 31% 29.91 in 10.0 mi South 17.3 mph 27.6 mph N/A   Clear
3:35 PM 77.0 °F 44.2 °F 31% 29.90 in 10.0 mi South 17.3 mph 25.3 mph N/A   Clear
3:55 PM 77.0 °F 44.2 °F 31% 29.89 in 10.0 mi SSE 17.3 mph 27.6 mph N/A   Clear
4:15 PM 77.2 °F 43.9 °F 31% 29.89 in 10.0 mi SSE 19.6 mph 28.8 mph N/A   Clear
4:35 PM 77.2 °F 44.1 °F 31% 29.89 in 10.0 mi SSE 15.0 mph 20.7 mph N/A   Clear
4:55 PM 77.2 °F 43.5 °F 30% 29.89 in 10.0 mi SSE 18.4 mph 26.5 mph N/A   Clear
5:15 PM 76.3 °F 43.2 °F 31% 29.89 in 10.0 mi SSE 18.4 mph 25.3 mph N/A   Clear
5:35 PM 74.7 °F 42.8 °F 32% 29.90 in 10.0 mi SSE 11.5 mph 24.2 mph N/A   Clear
5:55 PM 73.4 °F 43.0 °F 34% 29.90 in 10.0 mi SSE 12.7 mph 18.4 mph N/A   Clear
6:15 PM 72.9 °F 42.8 °F 34% 29.90 in 10.0 mi SSE 12.7 mph 20.7 mph N/A   Clear
6:35 PM 72.3 °F 42.4 °F 34% 29.90 in 10.0 mi SSE 12.7 mph 23.0 mph N/A   Clear
6:55 PM 70.0 °F 43.3 °F 38% 29.90 in 10.0 mi SSE 11.5 mph - N/A   Clear
7:15 PM 69.4 °F 43.3 °F 39% 29.90 in 10.0 mi SSE 12.7 mph - N/A   Clear
7:35 PM 69.1 °F 43.0 °F 39% 29.91 in 10.0 mi SSE 13.8 mph 19.6 mph N/A   Clear
7:55 PM 67.8 °F 43.5 °F 41% 29.91 in 10.0 mi SE 13.8 mph 18.4 mph N/A   Clear
8:15 PM 67.8 °F 43.0 °F 41% 29.92 in 10.0 mi SSE 15.0 mph 21.9 mph N/A   Clear
8:35 PM 67.1 °F 43.0 °F 42% 29.92 in 10.0 mi SSE 12.7 mph - N/A   Clear
8:55 PM 66.4 °F 43.3 °F 43% 29.92 in 10.0 mi SSE 12.7 mph 18.4 mph N/A   Clear
9:15 PM 65.7 °F 43.7 °F 45% 29.93 in 10.0 mi SSE 11.5 mph - N/A   Clear
9:35 PM 65.3 °F 44.6 °F 47% 29.93 in 10.0 mi SSE 11.5 mph - N/A   Clear
9:55 PM 64.8 °F 44.6 °F 48% 29.94 in 10.0 mi SSE 10.4 mph 18.4 mph N/A   Clear
10:15 PM 63.9 °F 44.6 °F 50% 29.94 in 10.0 mi SSE 12.7 mph 18.4 mph N/A   Clear
10:35 PM 64.0 °F 44.6 °F 49% 29.94 in 10.0 mi SSE 11.5 mph 16.1 mph N/A   Clear
10:55 PM 63.5 °F 44.6 °F 50% 29.95 in 10.0 mi SSE 9.2 mph - N/A   Clear
11:15 PM 62.6 °F 45.0 °F 52% 29.96 in 10.0 mi SSE 8.1 mph - N/A   Clear
11:35 PM 62.8 °F 45.1 °F 53% 29.96 in 10.0 mi SSE 11.5 mph - N/A   Clear
11:55 PM 62.6 °F 45.5 °F 54% 29.96 in 10.0 mi SSE 10.4 mph - N/A   Clear